Back to catalog

STARLINK-1456

AliveCommunicationsVLEO
NORAD 45673·PAYLOAD·🇺🇸 United States

Launched Jun 4, 2020 from Cape Canaveral Space Force Station

Loading…

Next Passes (next 24 hours)

TLE

FreshSource: CelesTrak SupGP

Epoch: Sep 14, 2026, 20:32 UTC

1 45673C 20035S   26257.85604167  .00100460  00000+0  50420-3 0  2575
2 45673  53.0379 196.2282 0005869  70.2308  78.6885 15.80952424    15

Track STARLINK-1456 in real time with AllMySat

Download on the App Store